TimeEST,TemperatureF,Dew PointF,Humidity,Sea Level PressureIn,VisibilityMPH,Wind Direction,Wind SpeedMPH,Gust SpeedMPH,PrecipitationIn,Events,Conditions,WindDirDegrees,DateUTC
12:12 AM,44.6,30.2,57,30.07,10.0,West,15.0,19.6,N/A,,Overcast,280,2012-11-04 04:12:00
12:33 AM,44.6,30.2,57,30.07,10.0,West,12.7,-,N/A,,Overcast,270,2012-11-04 04:33:00
12:54 AM,44.6,30.2,57,30.08,10.0,West,9.2,-,N/A,,Overcast,260,2012-11-04 04:54:00
1:36 AM,44.6,30.2,57,30.08,10.0,West,6.9,-,N/A,,Overcast,260,2012-11-04 05:36:00
1:57 AM,42.8,30.2,61,30.08,10.0,WSW,3.5,-,N/A,,Overcast,250,2012-11-04 05:57:00
1:18 AM,42.8,30.2,61,30.07,10.0,WSW,4.6,-,N/A,,Mostly Cloudy,250,2012-11-04 06:18:00
1:42 AM,42.8,30.2,61,30.07,10.0,WSW,3.5,-,N/A,,Mostly Cloudy,240,2012-11-04 06:42:00
2:03 AM,42.8,30.2,61,30.07,10.0,WSW,5.8,-,N/A,,Overcast,240,2012-11-04 07:03:00
2:24 AM,42.8,30.2,61,30.07,10.0,West,6.9,-,N/A,,Overcast,270,2012-11-04 07:24:00
2:45 AM,39.2,32.0,75,30.06,10.0,West,4.6,-,N/A,,Mostly Cloudy,260,2012-11-04 07:45:00
3:06 AM,41.0,30.2,65,30.06,10.0,West,5.8,-,N/A,,Mostly Cloudy,270,2012-11-04 08:06:00
3:27 AM,41.0,30.2,65,30.06,10.0,WSW,6.9,-,N/A,,Overcast,250,2012-11-04 08:27:00
3:48 AM,41.0,32.0,70,30.06,10.0,West,6.9,-,N/A,,Overcast,260,2012-11-04 08:48:00
4:09 AM,41.0,32.0,70,30.06,10.0,WSW,6.9,-,N/A,,Overcast,250,2012-11-04 09:09:00
4:30 AM,41.0,32.0,70,30.06,10.0,West,5.8,-,N/A,,Overcast,260,2012-11-04 09:30:00
4:33 AM,41.0,32.0,70,30.06,10.0,West,6.9,-,N/A,,Overcast,260,2012-11-04 09:33:00
5:54 AM,41.0,30.2,65,30.07,10.0,West,6.9,-,N/A,,Overcast,260,2012-11-04 10:54:00
7:54 AM,44.6,32.0,61,30.09,10.0,WSW,4.6,-,N/A,,Mostly Cloudy,250,2012-11-04 12:54:00
8:45 AM,44.6,32.0,61,30.10,10.0,WSW,4.6,-,N/A,,Mostly Cloudy,250,2012-11-04 13:45:00
9:45 AM,46.4,32.0,57,30.08,10.0,West,5.8,-,N/A,,Mostly Cloudy,280,2012-11-04 14:45:00
10:45 AM,46.4,32.0,57,30.08,10.0,WNW,9.2,-,N/A,,Overcast,290,2012-11-04 15:45:00
11:45 AM,46.4,32.0,57,30.07,10.0,West,8.1,-,N/A,,Overcast,280,2012-11-04 16:45:00
12:45 PM,46.4,32.0,57,30.05,10.0,West,12.7,-,N/A,,Mostly Cloudy,280,2012-11-04 17:45:00
1:45 PM,64.4,32.0,30,30.04,10.0,WNW,10.4,17.3,N/A,,Mostly Cloudy,300,2012-11-04 18:45:00
2:45 PM,50.0,30.2,47,30.02,10.0,West,10.4,16.1,N/A,,Scattered Clouds,260,2012-11-04 19:45:00
3:50 PM,50.0,30.2,47,30.02,10.0,NW,6.9,-,N/A,,Scattered Clouds,320,2012-11-04 20:50:00
4:55 PM,46.4,30.2,53,30.03,10.0,NNW,4.6,-,N/A,,Scattered Clouds,340,2012-11-04 21:55:00
5:45 PM,44.6,30.2,57,30.05,10.0,NNW,5.8,-,N/A,,Scattered Clouds,340,2012-11-04 22:45:00
6:50 PM,41.0,30.2,65,30.07,10.0,Calm,Calm,-,N/A,,Scattered Clouds,0,2012-11-04 23:50:00
7:45 PM,37.4,30.2,75,30.07,10.0,WNW,3.5,-,N/A,,Scattered Clouds,290,2012-11-05 00:45:00
8:55 PM,35.6,32.0,87,30.07,10.0,Calm,Calm,-,N/A,,Partly Cloudy,0,2012-11-05 01:55:00
9:09 PM,35.6,32.0,87,30.07,10.0,Calm,Calm,-,N/A,,Clear,0,2012-11-05 02:09:00
9:30 PM,35.6,32.0,87,30.07,10.0,Calm,Calm,-,N/A,,Clear,0,2012-11-05 02:30:00
9:45 PM,37.4,32.0,81,30.07,10.0,Calm,Calm,-,N/A,,Mostly Cloudy,0,2012-11-05 02:45:00
9:51 PM,35.6,32.0,87,30.07,10.0,Calm,Calm,-,N/A,,Mostly Cloudy,0,2012-11-05 02:51:00
10:12 PM,35.6,32.0,87,30.07,10.0,Calm,Calm,-,N/A,,Overcast,0,2012-11-05 03:12:00
10:36 PM,37.4,32.0,81,30.07,10.0,Calm,Calm,-,N/A,,Overcast,0,2012-11-05 03:36:00
10:57 PM,39.2,32.0,75,30.07,10.0,Calm,Calm,-,N/A,,Overcast,0,2012-11-05 03:57:00